Time,TemperatureF,DewpointF,PressureIn,WindDirection,WindDirectionDegrees,WindSpeedMPH,WindSpeedGustMPH,Humidity,HourlyPrecipIn,Conditions,Clouds,dailyrainin,SoftwareType,DateUTC
2013-09-11 11:42:00,85.3,71.1,29.95,NNE,32,16.0,-999.0,62,0.00,,,0.00,PyWeather,2013-09-11 21:42:00,
2013-09-11 11:43:00,85.3,71.1,29.95,North,5,16.0,-999.0,62,0.00,,,0.00,PyWeather,2013-09-11 21:43:00,
2013-09-11 11:45:00,85.3,71.1,29.95,NNE,33,16.0,-999.0,62,0.00,,,0.00,PyWeather,2013-09-11 21:45:00,
2013-09-11 12:09:00,84.6,71.8,29.95,North,9,17.0,-999.0,65,0.00,,,0.00,PyWeather,2013-09-11 22:09:00,
2013-09-11 12:10:00,85.2,71.0,29.94,NNE,29,16.0,-999.0,62,0.00,,,0.00,PyWeather,2013-09-11 22:10:00,
2013-09-11 12:14:00,85.5,70.8,29.95,NE,38,15.0,-999.0,61,0.00,,,0.00,PyWeather,2013-09-11 22:14:00,
2013-09-11 12:33:00,85.2,71.0,29.94,NNE,31,16.0,-999.0,62,0.00,,,0.00,PyWeather,2013-09-11 22:33:00,
2013-09-11 13:23:00,84.6,71.4,29.90,North,350,20.0,-999.0,64,0.00,,,0.00,PyWeather,2013-09-11 23:23:00,
2013-09-11 13:32:00,85.1,71.4,29.90,North,5,17.0,-999.0,63,0.00,,,0.00,PyWeather,2013-09-11 23:32:00,
2013-09-11 13:46:00,84.6,71.4,29.90,North,350,20.0,-999.0,64,0.00,,,0.00,PyWeather,2013-09-11 23:46:00,
2013-09-11 13:51:00,84.6,71.4,29.89,North,349,21.0,-999.0,64,0.00,,,0.00,PyWeather,2013-09-11 23:51:00,
2013-09-11 13:56:00,85.6,71.4,29.89,NNW,348,21.0,-999.0,62,0.00,,,0.00,PyWeather,2013-09-11 23:56:00,
2013-09-11 14:01:00,84.6,71.4,29.89,North,355,21.0,28.0,64,0.00,,,0.00,PyWeather,2013-09-12 00:01:00,
2013-09-11 14:06:00,85.5,71.3,29.88,NNE,15,20.0,28.0,62,0.00,,,0.00,PyWeather,2013-09-12 00:06:00,
2013-09-11 14:11:00,85.1,70.9,29.89,North,5,19.0,29.0,62,0.00,,,0.00,PyWeather,2013-09-12 00:11:00,
2013-09-11 14:16:00,85.4,70.7,29.88,North,355,18.0,29.0,61,0.00,,,0.00,PyWeather,2013-09-12 00:16:00,
2013-09-11 14:21:00,84.8,71.5,29.88,NNE,16,19.0,28.0,64,0.00,,,0.00,PyWeather,2013-09-12 00:21:00,
2013-09-11 14:26:00,84.6,71.4,29.88,NNE,16,20.0,28.0,64,0.00,,,0.00,PyWeather,2013-09-12 00:26:00,
2013-09-11 14:31:00,84.7,71.9,29.87,North,9,20.0,28.0,65,0.00,,,0.00,PyWeather,2013-09-12 00:31:00,
2013-09-11 14:36:00,84.9,71.6,29.86,North,9,19.0,28.0,64,0.00,,,0.00,PyWeather,2013-09-12 00:36:00,
2013-09-11 14:41:00,84.4,71.2,29.86,NNE,24,20.0,32.0,64,0.00,,,0.00,PyWeather,2013-09-12 00:41:00,
2013-09-11 14:46:00,84.0,70.3,29.87,NNE,30,22.0,32.0,63,0.00,,,0.00,PyWeather,2013-09-12 00:46:00,
2013-09-11 14:51:00,83.9,70.7,29.87,North,9,22.0,30.0,64,0.00,,,0.00,PyWeather,2013-09-12 00:51:00,
2013-09-11 14:56:00,83.8,70.6,29.87,NNE,16,22.0,30.0,64,0.00,,,0.00,PyWeather,2013-09-12 00:56:00,
2013-09-11 15:01:00,83.8,70.1,29.86,NNE,20,21.0,30.0,63,0.00,,,0.00,PyWeather,2013-09-12 01:01:00,
2013-09-11 15:06:00,83.8,69.7,29.87,NNE,15,21.0,30.0,62,0.00,,,0.00,PyWeather,2013-09-12 01:06:00,
2013-09-11 15:11:00,83.4,70.2,29.87,North,9,21.0,30.0,64,0.00,,,0.00,PyWeather,2013-09-12 01:11:00,
2013-09-11 15:16:00,83.7,70.5,29.86,North,9,20.0,30.0,64,0.00,,,0.00,PyWeather,2013-09-12 01:16:00,
2013-09-11 15:21:00,83.3,71.0,29.87,NNE,13,19.0,29.0,66,0.00,,,0.00,PyWeather,2013-09-12 01:21:00,
2013-09-11 15:26:00,83.6,71.3,29.87,NNW,329,20.0,29.0,66,0.00,,,0.00,PyWeather,2013-09-12 01:26:00,
2013-09-11 15:31:00,84.2,71.9,29.87,NNE,17,18.0,29.0,66,0.00,,,0.00,PyWeather,2013-09-12 01:31:00,
2013-09-11 15:36:00,83.4,71.1,29.87,North,9,18.0,29.0,66,0.00,,,0.00,PyWeather,2013-09-12 01:36:00,
2013-09-11 15:41:00,83.2,70.9,29.87,North,5,21.0,29.0,66,0.00,,,0.00,PyWeather,2013-09-12 01:41:00,
2013-09-11 15:46:00,83.2,70.9,29.87,North,5,21.0,29.0,66,0.00,,,0.00,PyWeather,2013-09-12 01:46:00,
2013-09-11 15:51:00,83.2,71.8,29.87,North,355,20.0,29.0,68,0.00,,,0.00,PyWeather,2013-09-12 01:51:00,
2013-09-11 15:56:00,82.9,71.5,29.87,NNE,19,20.0,29.0,68,0.00,,,0.00,PyWeather,2013-09-12 01:56:00,
2013-09-11 16:01:00,82.7,71.7,29.88,NNE,13,19.0,28.0,69,0.00,,,0.00,PyWeather,2013-09-12 02:01:00,
2013-09-11 16:06:00,82.6,72.1,29.88,NNE,14,18.0,28.0,70,0.00,,,0.00,PyWeather,2013-09-12 02:06:00,
2013-09-11 16:11:00,82.7,72.2,29.88,North,5,17.0,26.0,70,0.00,,,0.00,PyWeather,2013-09-12 02:11:00,
2013-09-11 16:16:00,82.5,72.4,29.88,North,9,16.0,26.0,71,0.00,,,0.00,PyWeather,2013-09-12 02:16:00,
2013-09-11 16:21:00,81.6,71.9,29.88,North,360,18.0,27.0,72,0.00,,,0.00,PyWeather,2013-09-12 02:21:00,
2013-09-11 16:26:00,81.7,71.2,29.88,North,360,18.0,27.0,70,0.00,,,0.00,PyWeather,2013-09-12 02:26:00,
2013-09-11 16:31:00,82.3,71.4,29.88,NNE,23,17.0,26.0,69,0.00,,,0.00,PyWeather,2013-09-12 02:31:00,
2013-09-11 16:36:00,83.0,71.6,29.88,North,360,15.0,26.0,68,0.00,,,0.00,PyWeather,2013-09-12 02:36:00,
2013-09-11 16:41:00,83.2,71.4,29.88,North,11,13.0,23.0,67,0.00,,,0.00,PyWeather,2013-09-12 02:41:00,
2013-09-11 16:46:00,82.9,71.9,29.88,NNE,14,14.0,23.0,69,0.00,,,0.00,PyWeather,2013-09-12 02:46:00,
2013-09-11 16:51:00,82.5,72.4,29.88,NNE,23,15.0,22.0,71,0.00,,,0.00,PyWeather,2013-09-12 02:51:00,
2013-09-11 16:56:00,82.3,72.6,29.88,NNE,15,15.0,22.0,72,0.00,,,0.00,PyWeather,2013-09-12 02:56:00,
2013-09-11 17:01:00,82.5,73.2,29.88,North,11,13.0,21.0,73,0.00,,,0.00,PyWeather,2013-09-12 03:01:00,
2013-09-11 17:06:00,82.2,72.9,29.88,North,9,12.0,21.0,73,0.00,,,0.00,PyWeather,2013-09-12 03:06:00,
2013-09-11 17:11:00,82.0,72.7,29.88,NNW,348,13.0,20.0,73,0.00,,,0.00,PyWeather,2013-09-12 03:11:00,
2013-09-11 17:16:00,81.6,72.7,29.88,North,355,14.0,20.0,74,0.00,,,0.00,PyWeather,2013-09-12 03:16:00,
2013-09-11 17:21:00,81.5,71.8,29.88,North,5,15.0,-999.0,72,0.00,,,0.00,PyWeather,2013-09-12 03:21:00,
2013-09-11 17:26:00,81.7,70.8,29.88,NNE,18,14.0,-999.0,69,0.00,,,0.00,PyWeather,2013-09-12 03:26:00,
2013-09-11 17:31:00,81.6,70.7,29.88,North,355,13.0,23.0,69,0.00,,,0.00,PyWeather,2013-09-12 03:31:00,
2013-09-11 17:36:00,81.4,70.5,29.88,NNE,15,15.0,23.0,69,0.00,,,0.00,PyWeather,2013-09-12 03:36:00,
2013-09-11 17:41:00,81.2,70.3,29.88,North,5,16.0,22.0,69,0.00,,,0.00,PyWeather,2013-09-12 03:41:00,
2013-09-11 17:46:00,80.9,70.8,29.88,NNE,13,16.0,22.0,71,0.00,,,0.00,PyWeather,2013-09-12 03:46:00,
2013-09-11 17:51:00,80.7,71.0,29.88,North,355,15.0,23.0,72,0.00,,,0.00,PyWeather,2013-09-12 03:51:00,
2013-09-11 17:56:00,80.5,71.6,29.89,NNE,32,15.0,23.0,74,0.00,,,0.00,PyWeather,2013-09-12 03:56:00,
2013-09-11 18:01:00,80.2,71.7,29.89,North,9,14.0,21.0,75,0.00,,,0.00,PyWeather,2013-09-12 04:01:00,
2013-09-11 18:02:00,80.2,71.7,29.89,North,9,14.0,21.0,75,0.00,,,0.00,PyWeather,2013-09-12 04:02:00,
2013-09-11 18:06:00,79.8,71.7,29.89,NNE,15,14.0,21.0,76,0.00,,,0.00,PyWeather,2013-09-12 04:06:00,
2013-09-11 18:07:00,79.8,71.7,29.89,NNE,13,14.0,21.0,76,0.00,,,0.00,PyWeather,2013-09-12 04:07:00,
2013-09-11 18:12:00,79.6,71.5,29.89,NNE,33,14.0,-999.0,76,0.00,,,0.00,PyWeather,2013-09-12 04:12:00,
2013-09-11 18:17:00,79.3,71.6,29.89,North,355,15.0,-999.0,77,0.00,,,0.00,PyWeather,2013-09-12 04:17:00,
2013-09-11 18:22:00,79.2,71.5,29.90,North,355,15.0,21.0,77,0.00,,,0.00,PyWeather,2013-09-12 04:22:00,
2013-09-11 18:27:00,79.2,71.9,29.90,North,5,14.0,21.0,78,0.00,,,0.00,PyWeather,2013-09-12 04:27:00,
2013-09-11 18:32:00,79.0,71.7,29.90,North,360,14.0,-999.0,78,0.00,,,0.00,PyWeather,2013-09-12 04:32:00,
2013-09-11 18:37:00,78.9,72.0,29.90,North,5,14.0,-999.0,79,0.00,,,0.00,PyWeather,2013-09-12 04:37:00,
2013-09-11 18:42:00,78.7,71.8,29.90,North,5,14.0,21.0,79,0.00,,,0.00,PyWeather,2013-09-12 04:42:00,
2013-09-11 18:47:00,78.7,72.1,29.90,North,350,13.0,21.0,80,0.00,,,0.00,PyWeather,2013-09-12 04:47:00,
2013-09-11 18:52:00,78.2,72.0,29.90,North,355,14.0,21.0,81,0.00,,,0.00,PyWeather,2013-09-12 04:52:00,
2013-09-11 18:57:00,78.0,72.1,29.91,NNE,28,15.0,21.0,82,0.00,,,0.00,PyWeather,2013-09-12 04:57:00,
2013-09-11 19:03:00,77.9,72.0,29.91,North,351,12.0,20.0,82,0.00,,,0.00,PyWeather,2013-09-12 05:03:00,
2013-09-11 19:08:00,78.0,72.1,29.91,North,9,12.0,20.0,82,0.00,,,0.00,PyWeather,2013-09-12 05:08:00,
2013-09-11 19:13:00,78.0,71.8,29.91,North,5,13.0,20.0,81,0.00,,,0.00,PyWeather,2013-09-12 05:13:00,
2013-09-11 19:18:00,77.9,71.7,29.91,North,9,12.0,20.0,81,0.00,,,0.00,PyWeather,2013-09-12 05:18:00,
2013-09-11 19:23:00,77.9,71.7,29.92,North,9,12.0,-999.0,81,0.00,,,0.00,PyWeather,2013-09-12 05:23:00,
2013-09-11 19:28:00,77.8,71.6,29.91,North,5,11.0,-999.0,81,0.00,,,0.00,PyWeather,2013-09-12 05:28:00,
2013-09-11 19:33:00,77.7,71.8,29.91,North,5,12.0,-999.0,82,0.00,,,0.00,PyWeather,2013-09-12 05:33:00,
2013-09-11 19:38:00,77.6,71.7,29.92,North,9,12.0,-999.0,82,0.00,,,0.00,PyWeather,2013-09-12 05:38:00,
2013-09-11 19:43:00,77.5,71.7,29.92,NNE,14,12.0,-999.0,82,0.00,,,0.00,PyWeather,2013-09-12 05:43:00,
2013-09-11 19:48:00,77.5,71.7,29.92,North,360,11.0,-999.0,82,0.00,,,0.00,PyWeather,2013-09-12 05:48:00,
2013-09-11 19:53:00,77.5,72.0,29.92,North,9,10.0,-999.0,83,0.00,,,0.00,PyWeather,2013-09-12 05:53:00,
2013-09-11 19:58:00,77.5,72.0,29.92,North,5,9.0,-999.0,83,0.00,,,0.00,PyWeather,2013-09-12 05:58:00,
2013-09-11 20:03:00,77.5,72.0,29.93,North,351,8.0,-999.0,83,0.00,,,0.00,PyWeather,2013-09-12 06:03:00,
2013-09-11 20:08:00,77.4,71.9,29.93,North,11,8.0,-999.0,83,0.00,,,0.00,PyWeather,2013-09-12 06:08:00,
2013-09-11 20:13:00,77.4,71.9,29.93,NNW,342,9.0,15.0,83,0.00,,,0.00,PyWeather,2013-09-12 06:13:00,
2013-09-11 20:18:00,77.3,71.8,29.93,North,360,10.0,15.0,83,0.00,,,0.00,PyWeather,2013-09-12 06:18:00,
2013-09-11 20:23:00,77.3,71.8,29.93,North,5,11.0,-999.0,83,0.00,,,0.00,PyWeather,2013-09-12 06:23:00,
2013-09-11 20:28:00,77.3,71.8,29.92,North,9,11.0,-999.0,83,0.00,,,0.00,PyWeather,2013-09-12 06:28:00,
2013-09-11 20:33:00,77.3,71.8,29.92,North,9,11.0,-999.0,83,0.00,,,0.00,PyWeather,2013-09-12 06:33:00,
2013-09-11 20:38:00,77.3,71.8,29.93,NNE,22,10.0,-999.0,83,0.00,,,0.00,PyWeather,2013-09-12 06:38:00,
2013-09-11 20:43:00,77.2,71.7,29.93,NNE,15,9.0,16.0,83,0.00,,,0.00,PyWeather,2013-09-12 06:43:00,
2013-09-11 20:48:00,77.1,71.9,29.93,NNE,24,8.0,16.0,84,0.00,,,0.00,PyWeather,2013-09-12 06:48:00,
2013-09-11 20:53:00,77.1,71.9,29.94,North,9,7.0,14.0,84,0.00,,,0.00,PyWeather,2013-09-12 06:53:00,
2013-09-11 20:58:00,77.1,71.9,29.94,NNE,23,7.0,14.0,84,0.00,,,0.00,PyWeather,2013-09-12 06:58:00,
2013-09-11 21:03:00,77.2,72.0,29.94,NNE,25,8.0,16.0,84,0.00,,,0.00,PyWeather,2013-09-12 07:03:00,
2013-09-11 21:08:00,77.3,72.1,29.94,NNE,28,8.0,16.0,84,0.00,,,0.00,PyWeather,2013-09-12 07:08:00,
2013-09-11 21:13:00,77.3,72.1,29.94,NNE,15,8.0,-999.0,84,0.00,,,0.00,PyWeather,2013-09-12 07:13:00,
2013-09-11 21:18:00,77.4,72.2,29.94,NNE,22,8.0,-999.0,84,0.00,,,0.00,PyWeather,2013-09-12 07:18:00,
2013-09-11 21:23:00,77.5,72.3,29.94,North,9,7.0,-999.0,84,0.00,,,0.00,PyWeather,2013-09-12 07:23:00,
2013-09-11 21:28:00,77.5,72.3,29.94,NNE,30,8.0,-999.0,84,0.00,,,0.00,PyWeather,2013-09-12 07:28:00,
2013-09-11 21:33:00,77.5,72.3,29.94,NNE,16,8.0,-999.0,84,0.00,,,0.00,PyWeather,2013-09-12 07:33:00,
2013-09-11 21:38:00,77.4,72.2,29.94,NNE,22,8.0,-999.0,84,0.00,,,0.00,PyWeather,2013-09-12 07:38:00,
2013-09-11 21:43:00,77.3,72.1,29.94,NNE,23,7.0,-999.0,84,0.00,,,0.00,PyWeather,2013-09-12 07:43:00,
2013-09-11 21:48:00,77.2,72.0,29.94,NNE,25,7.0,-999.0,84,0.00,,,0.00,PyWeather,2013-09-12 07:48:00,
2013-09-11 21:53:00,77.1,71.9,29.94,NE,34,7.0,-999.0,84,0.00,,,0.00,PyWeather,2013-09-12 07:53:00,
2013-09-11 21:58:00,77.0,71.8,29.94,NNE,21,7.0,-999.0,84,0.00,,,0.00,PyWeather,2013-09-12 07:58:00,
2013-09-11 22:03:00,76.8,71.7,29.94,NNE,25,7.0,-999.0,84,0.00,,,0.00,PyWeather,2013-09-12 08:03:00,
2013-09-11 22:08:00,76.7,71.6,29.95,North,10,7.0,-999.0,84,0.00,,,0.00,PyWeather,2013-09-12 08:08:00,
2013-09-11 22:13:00,76.6,71.8,29.94,North,360,7.0,-999.0,85,0.00,,,0.00,PyWeather,2013-09-12 08:13:00,
2013-09-11 22:18:00,76.5,71.7,29.94,NNE,26,6.0,-999.0,85,0.00,,,0.00,PyWeather,2013-09-12 08:18:00,
2013-09-11 22:23:00,76.3,71.5,29.94,North,9,6.0,-999.0,85,0.00,,,0.00,PyWeather,2013-09-12 08:23:00,
2013-09-11 22:28:00,76.2,71.4,29.95,NNE,19,5.0,-999.0,85,0.00,,,0.00,PyWeather,2013-09-12 08:28:00,
2013-09-11 22:33:00,76.2,71.4,29.94,NNE,13,5.0,-999.0,85,0.00,,,0.00,PyWeather,2013-09-12 08:33:00,
2013-09-11 22:38:00,76.1,71.3,29.94,NNE,23,4.0,-999.0,85,0.00,,,0.00,PyWeather,2013-09-12 08:38:00,
2013-09-11 22:43:00,76.0,71.5,29.94,NNE,24,4.0,-999.0,86,0.00,,,0.00,PyWeather,2013-09-12 08:43:00,
2013-09-11 22:48:00,75.9,71.4,29.94,NNE,19,4.0,-999.0,86,0.00,,,0.00,PyWeather,2013-09-12 08:48:00,
2013-09-11 22:53:00,75.9,71.4,29.94,NNE,24,4.0,-999.0,86,0.00,,,0.00,PyWeather,2013-09-12 08:53:00,
2013-09-11 22:58:00,75.9,71.4,29.94,NNE,19,5.0,-999.0,86,0.00,,,0.00,PyWeather,2013-09-12 08:58:00,
2013-09-11 23:03:00,75.9,71.4,29.94,NNE,17,5.0,-999.0,86,0.00,,,0.00,PyWeather,2013-09-12 09:03:00,
2013-09-11 23:08:00,75.9,71.4,29.94,North,11,5.0,-999.0,86,0.00,,,0.00,PyWeather,2013-09-12 09:08:00,
2013-09-11 23:13:00,75.9,71.4,29.94,North,11,5.0,-999.0,86,0.00,,,0.00,PyWeather,2013-09-12 09:13:00,
2013-09-11 23:18:00,75.8,71.7,29.94,NNE,13,6.0,-999.0,87,0.00,,,0.00,PyWeather,2013-09-12 09:18:00,
2013-09-11 23:23:00,75.7,71.6,29.94,North,355,6.0,-999.0,87,0.00,,,0.00,PyWeather,2013-09-12 09:23:00,
2013-09-11 23:28:00,75.6,71.5,29.94,NNE,19,6.0,-999.0,87,0.00,,,0.00,PyWeather,2013-09-12 09:28:00,
2013-09-11 23:33:00,75.6,71.5,29.94,NNE,22,5.0,-999.0,87,0.00,,,0.00,PyWeather,2013-09-12 09:33:00,
2013-09-11 23:38:00,75.6,71.5,29.94,NNE,15,4.0,-999.0,87,0.00,,,0.00,PyWeather,2013-09-12 09:38:00,
2013-09-11 23:43:00,75.5,71.4,29.93,NNE,24,3.0,-999.0,87,0.00,,,0.00,PyWeather,2013-09-12 09:43:00,
2013-09-11 23:48:00,75.4,71.3,29.93,NNE,25,3.0,-999.0,87,0.00,,,0.00,PyWeather,2013-09-12 09:48:00,
2013-09-11 23:53:00,75.3,71.2,29.93,NNE,25,1.0,-999.0,87,0.00,,,0.00,PyWeather,2013-09-12 09:53:00,
2013-09-11 23:58:00,75.1,71.0,29.93,NNE,25,0.0,-999.0,87,0.00,,,0.00,PyWeather,2013-09-12 09:58:00,